When you browse on this site, cookies collect data to enhance your experience and personalize the content and advertising you see.
Visit our Privacy Policy to learn more. By continuing to use the site, you agree to this use of cookies and data.
  • In Netherlands
  • List of Countries
  • For 7 days
  • Water Temperature
  • Weather Map
  • Weather Widgets
  • user-avatar
    Login

    Hourly Weather Klyuchevaya

    Today, 20 January, Monday

    Time Temperature Precipitation Wind Pressure Humidity
    00:00 0°C° 0 mm 5 mps 751 mmHg 91%
    01:00 0°C° 0 mm 5 mps 751 mmHg 88%
    02:00 0°C° 0 mm 5 mps 751 mmHg 86%
    03:00 0°C° 0.1 mm 5 mps 751 mmHg 89%
    04:00 0°C° 0.1 mm 5 mps 751 mmHg 92%
    05:00 -1°C° 0.1 mm 5 mps 751 mmHg 95%
    06:00 -1°C° 0 mm 5 mps 751 mmHg 95%
    07:00 -1°C° 0 mm 5 mps 751 mmHg 96%
    08:00 -1°C° 0 mm 5 mps 751 mmHg 96%
    09:00 -1°C° 0.1 mm 5 mps 751 mmHg 95%
    10:00 -1°C° 0.1 mm 5 mps 751 mmHg 94%
    11:00 -1°C° 0.1 mm 5 mps 751 mmHg 93%
    12:00 -1°C° 0.1 mm 5 mps 751 mmHg 94%
    13:00 -1°C° 0.1 mm 5 mps 751 mmHg 95%
    14:00 -1°C° 0.1 mm 5 mps 751 mmHg 95%
    15:00 -1°C° 0 mm 5 mps 751 mmHg 95%
    16:00 -1°C° 0 mm 5 mps 750 mmHg 95%
    17:00 -1°C° 0 mm 4 mps 750 mmHg 95%
    18:00 -1°C° 0 mm 5 mps 750 mmHg 93%
    19:00 -1°C° 0 mm 5 mps 749 mmHg 90%
    20:00 -1°C° 0 mm 5 mps 749 mmHg 88%
    21:00 -1°C° 0 mm 5 mps 748 mmHg 87%
    22:00 -1°C° 0 mm 4 mps 748 mmHg 85%
    23:00 -2°C° 0 mm 4 mps 747 mmHg 84%

    Tomorrow, 21 January, Tuesday

    Time Temperature Precipitation Wind Pressure Humidity
    00:00 -2°C° 0.1 mm 5 mps 747 mmHg 86%
    01:00 -2°C° 0.1 mm 5 mps 746 mmHg 88%
    02:00 -2°C° 0.1 mm 5 mps 745 mmHg 90%
    03:00 -1°C° 0.4 mm 5 mps 744 mmHg 90%
    04:00 -2°C° 0.4 mm 6 mps 743 mmHg 91%
    05:00 -1°C° 0.4 mm 6 mps 742 mmHg 91%
    06:00 -1°C° 0.3 mm 6 mps 741 mmHg 90%
    07:00 +1°C° 0.3 mm 6 mps 740 mmHg 89%
    08:00 +1°C° 0.3 mm 6 mps 739 mmHg 87%
    09:00 +2°C° 0 mm 6 mps 739 mmHg 87%
    10:00 +2°C° 0 mm 6 mps 738 mmHg 87%
    11:00 +3°C° 0 mm 6 mps 738 mmHg 87%
    12:00 +3°C° 0.1 mm 6 mps 737 mmHg 87%
    13:00 +3°C° 0.1 mm 6 mps 737 mmHg 87%
    14:00 +3°C° 0.1 mm 5 mps 737 mmHg 88%
    15:00 +3°C° 0.5 mm 5 mps 736 mmHg 90%
    16:00 +3°C° 0.5 mm 5 mps 735 mmHg 92%
    17:00 +3°C° 0.5 mm 4 mps 733 mmHg 94%
    18:00 +2°C° 0.5 mm 5 mps 733 mmHg 91%
    19:00 +2°C° 0.5 mm 6 mps 733 mmHg 88%
    20:00 +2°C° 0.5 mm 7 mps 733 mmHg 86%
    21:00 0°C° 0.1 mm 7 mps 733 mmHg 81%
    22:00 -2°C° 0.1 mm 7 mps 734 mmHg 77%
    23:00 -3°C° 0.1 mm 7 mps 734 mmHg 73%

    Day after tomorrow, 22 January, Wednesday

    Time Temperature Precipitation Wind Pressure Humidity
    00:00 -3°C° 0 mm 6 mps 734 mmHg 74%
    01:00 -3°C° 0 mm 6 mps 734 mmHg 75%
    02:00 -4°C° 0 mm 5 mps 734 mmHg 76%
    03:00 -4°C° 0 mm 5 mps 733 mmHg 76%
    04:00 -4°C° 0 mm 5 mps 733 mmHg 77%
    05:00 -4°C° 0 mm 5 mps 732 mmHg 78%
    06:00 -4°C° 0.1 mm 5 mps 731 mmHg 81%
    07:00 -4°C° 0.1 mm 6 mps 731 mmHg 83%
    08:00 -4°C° 0.1 mm 6 mps 730 mmHg 86%
    09:00 -4°C° 0.3 mm 6 mps 730 mmHg 80%
    10:00 -3°C° 0.3 mm 6 mps 730 mmHg 73%
    11:00 -3°C° 0.3 mm 6 mps 730 mmHg 67%
    12:00 -3°C° 0 mm 6 mps 730 mmHg 68%
    13:00 -4°C° 0 mm 6 mps 730 mmHg 68%
    14:00 -4°C° 0 mm 6 mps 730 mmHg 69%
    15:00 -4°C° 0 mm 6 mps 730 mmHg 71%
    16:00 -4°C° 0 mm 6 mps 730 mmHg 73%
    17:00 -5°C° 0 mm 6 mps 730 mmHg 75%
    18:00 -5°C° 0.1 mm 6 mps 731 mmHg 76%
    19:00 -5°C° 0.1 mm 6 mps 731 mmHg 77%
    20:00 -5°C° 0.1 mm 6 mps 732 mmHg 78%
    21:00 -6°C° 0.1 mm 6 mps 732 mmHg 79%
    22:00 -6°C° 0.1 mm 6 mps 733 mmHg 80%
    23:00 -8°C° 0.1 mm 7 mps 734 mmHg 81%

    23 January, Thursday

    Time Temperature Precipitation Wind Pressure Humidity
    00:00 -8°C° 0 mm 6 mps 734 mmHg 78%
    01:00 -9°C° 0 mm 6 mps 735 mmHg 74%
    02:00 -9°C° 0 mm 6 mps 736 mmHg 70%
    03:00 -10°C° 0 mm 6 mps 736 mmHg 68%
    04:00 -10°C° 0 mm 6 mps 737 mmHg 66%
    05:00 -10°C° 0 mm 6 mps 737 mmHg 63%
    06:00 -10°C° 0 mm 6 mps 738 mmHg 62%
    07:00 -10°C° 0 mm 6 mps 738 mmHg 60%
    08:00 -10°C° 0 mm 5 mps 739 mmHg 59%
    09:00 -10°C° 0 mm 5 mps 739 mmHg 59%
    10:00 -10°C° 0 mm 6 mps 740 mmHg 59%
    11:00 -10°C° 0 mm 6 mps 741 mmHg 59%
    12:00 -10°C° 0 mm 5 mps 741 mmHg 59%
    13:00 -10°C° 0 mm 5 mps 742 mmHg 59%
    14:00 -10°C° 0 mm 5 mps 743 mmHg 60%
    15:00 -9°C° 0 mm 4 mps 743 mmHg 62%
    16:00 -10°C° 0 mm 4 mps 744 mmHg 64%
    17:00 -10°C° 0 mm 4 mps 744 mmHg 66%
    18:00 -9°C° 0 mm 3 mps 744 mmHg 68%
    19:00 -9°C° 0 mm 3 mps 744 mmHg 71%
    20:00 -9°C° 0 mm 3 mps 745 mmHg 74%
    21:00 -9°C° 0 mm 3 mps 745 mmHg 73%
    22:00 -9°C° 0 mm 3 mps 745 mmHg 72%
    23:00 -8°C° 0 mm 3 mps 745 mmHg 71%

    24 January, Friday

    Time Temperature Precipitation Wind Pressure Humidity
    00:00 -8°C° 0 mm 3 mps 744 mmHg 68%
    01:00 -8°C° 0 mm 3 mps 743 mmHg 65%
    02:00 -8°C° 0 mm 3 mps 743 mmHg 62%
    03:00 -7°C° 0.2 mm 3 mps 742 mmHg 72%
    04:00 -8°C° 0.2 mm 4 mps 741 mmHg 81%
    05:00 -7°C° 0.2 mm 4 mps 740 mmHg 91%
    06:00 -5°C° 0.2 mm 4 mps 740 mmHg 92%
    07:00 -5°C° 0.2 mm 4 mps 739 mmHg 93%
    08:00 -4°C° 0.2 mm 4 mps 738 mmHg 95%
    09:00 -4°C° 0.1 mm 4 mps 738 mmHg 94%
    10:00 -3°C° 0.1 mm 4 mps 738 mmHg 94%
    11:00 -2°C° 0.1 mm 4 mps 737 mmHg 93%
    12:00 -1°C° 0.1 mm 4 mps 737 mmHg 93%
    13:00 0°C° 0.1 mm 4 mps 736 mmHg 94%
    14:00 0°C° 0.1 mm 4 mps 736 mmHg 94%
    15:00 0°C° 0.1 mm 4 mps 736 mmHg 94%
    16:00 0°C° 0.1 mm 4 mps 735 mmHg 95%
    17:00 +1°C° 0.1 mm 4 mps 735 mmHg 96%
    18:00 +1°C° 0.3 mm 4 mps 735 mmHg 96%
    19:00 +1°C° 0.3 mm 4 mps 735 mmHg 96%
    20:00 +1°C° 0.3 mm 4 mps 735 mmHg 96%
    21:00 +1°C° 0.2 mm 4 mps 735 mmHg 97%
    22:00 0°C° 0.2 mm 4 mps 735 mmHg 97%
    23:00 +1°C° 0.2 mm 3 mps 735 mmHg 97%

    25 January, Saturday

    Time Temperature Precipitation Wind Pressure Humidity
    00:00 +1°C° 0.5 mm 3 mps 735 mmHg 97%
    01:00 +1°C° 0.5 mm 3 mps 735 mmHg 97%
    02:00 +1°C° 0.5 mm 3 mps 735 mmHg 97%
    03:00 +1°C° 0.1 mm 2 mps 735 mmHg 97%
    04:00 +1°C° 0.1 mm 2 mps 735 mmHg 97%
    05:00 +1°C° 0.1 mm 2 mps 735 mmHg 97%
    06:00 +1°C° 0 mm 2 mps 736 mmHg 97%
    07:00 +1°C° 0 mm 2 mps 736 mmHg 97%
    08:00 +1°C° 0 mm 2 mps 736 mmHg 97%
    09:00 +1°C° 0 mm 2 mps 737 mmHg 96%
    10:00 0°C° 0 mm 3 mps 737 mmHg 95%
    11:00 +1°C° 0 mm 3 mps 737 mmHg 93%
    12:00 +1°C° 0 mm 3 mps 737 mmHg 92%
    13:00 0°C° 0 mm 4 mps 738 mmHg 91%
    14:00 0°C° 0 mm 4 mps 738 mmHg 90%
    15:00 0°C° 0 mm 4 mps 738 mmHg 90%
    16:00 0°C° 0 mm 3 mps 738 mmHg 90%
    17:00 -1°C° 0 mm 3 mps 739 mmHg 90%
    18:00 -1°C° 0 mm 3 mps 739 mmHg 90%
    19:00 -1°C° 0 mm 3 mps 739 mmHg 91%
    20:00 -3°C° 0 mm 4 mps 740 mmHg 91%
    21:00 -2°C° 0 mm 3 mps 740 mmHg 91%
    22:00 -2°C° 0 mm 3 mps 741 mmHg 92%
    23:00 -2°C° 0 mm 3 mps 741 mmHg 92%
    Show more